Voltar ao catálogo

STARLINK-30311

AtivoComunicaçõesVLEO
NORAD 57637·PAYLOAD·🇺🇸 United States

Lançado Aug 17, 2023 de Cape Canaveral Space Force Station

Loading…

Próximas Passagens (próximas 24 horas)

TLE

AtualizadoSource: CelesTrak SupGP

Época: Sep 15, 2026, 01:48 UTC

1 57637C 23122F   26258.07548611  .00052303  00000+0  18953-2 0  2581
2 57637  42.9994 102.6341 0001335 272.7907 131.8715 15.27537111    10

Acompanhe STARLINK-30311 em tempo real com AllMySat

Download on the App Store